User: anonymous   Login
Location: Unspecified
(0.0000°N, 0.0000°E)
Time: 18:46:17
(UTC+00:00)
Language:

OBJECT G - Orbit

View from above orbital plane
View from above orbital plane
View from above satellite
View from above satellite

Ground track
Ground track

The orbit data is extracted from the following two-line orbital elements,

1 41936U 98067KY  17145.61366290 +.00058210 +00000-0 +49658-3 0  9995
2 41936 051.6349 144.3276 0001738 117.3774 242.7400 15.68946262019557
Epoch (UTC): 25 May 2017 14:43:40
Eccentricity: 0.0001738
inclination: 51.6349°
perigee height: 361 km
apogee height: 363 km
right ascension of ascending node: 144.3276°
argument of perigee: 117.3774°
revolutions per day: 15.68946262
mean anomaly at epoch: 242.7400°
orbit number at epoch: 1955

The dashed part of the orbit path shows where the satellite is in the earth's shadow,  

DLR